contact:dominique.lefevre@mio.osupytheas.fr, maurice.libes@osupytheas.fr, didier.mallarino@osupytheas.fr
Project:EMSO http://www.emso-fr.org/EMSO-France
Depth: 2436.0 m
Title:EMSO Ligure Ouest : Data MII capteur MICROCAT
DateTime_Computer,Latitude,Longitude,Temperature,Conductivity,Pressure,DateTime_Instrument
DateTime_Computer,Latitude,Longitude,degC,S m-1,dbar,DateTime_Instrument
2019-05-18T00:01:32Z,42.805,6.029,13.2998,4.59982,2469.284,2019-5-18T02:01:46Z
2019-05-18T00:04:35Z,42.805,6.029,13.2983,4.59985,2469.307,2019-5-18T02:04:49Z
2019-05-18T00:07:38Z,42.805,6.029,13.3011,4.59991,2469.293,2019-5-18T02:07:52Z
2019-05-18T00:10:41Z,42.805,6.029,13.3009,4.59986,2469.27,2019-5-18T02:10:55Z
2019-05-18T00:13:44Z,42.805,6.029,13.2992,4.59991,2469.33,2019-5-18T02:13:58Z
2019-05-18T00:16:47Z,42.805,6.029,13.2991,4.59992,2469.307,2019-5-18T02:17:01Z
2019-05-18T00:19:50Z,42.805,6.029,13.2993,4.59981,2469.284,2019-5-18T02:20:04Z
2019-05-18T00:22:53Z,42.805,6.029,13.2989,4.59979,2469.26,2019-5-18T02:23:07Z
2019-05-18T00:25:56Z,42.805,6.029,13.2989,4.59985,2469.293,2019-5-18T02:26:10Z
2019-05-18T00:28:59Z,42.805,6.029,13.2988,4.59989,2469.27,2019-5-18T02:29:13Z
2019-05-18T00:32:02Z,42.805,6.029,13.2987,4.59981,2469.284,2019-5-18T02:32:16Z
2019-05-18T00:35:05Z,42.805,6.029,13.3004,4.59988,2469.307,2019-5-18T02:35:19Z
2019-05-18T00:38:08Z,42.805,6.029,13.2982,4.59986,2469.284,2019-5-18T02:38:22Z
2019-05-18T00:41:11Z,42.805,6.029,13.2983,4.59992,2469.27,2019-5-18T02:41:25Z
2019-05-18T00:44:14Z,42.805,6.029,13.2993,4.60004,2469.307,2019-5-18T02:44:28Z
2019-05-18T00:47:17Z,42.805,6.029,13.3016,4.60000,2469.27,2019-5-18T02:47:31Z
2019-05-18T00:50:19Z,42.805,6.029,13.3008,4.59986,2469.307,2019-5-18T02:50:33Z
2019-05-18T00:53:22Z,42.805,6.029,13.3003,4.59992,2469.26,2019-5-18T02:53:36Z
2019-05-18T00:56:25Z,42.805,6.029,13.3000,4.60007,2469.307,2019-5-18T02:56:39Z
2019-05-18T00:59:28Z,42.805,6.029,13.2988,4.60005,2469.293,2019-5-18T02:59:42Z
2019-05-18T01:02:31Z,42.805,6.029,13.3008,4.59999,2469.27,2019-5-18T03:02:45Z
2019-05-18T01:05:34Z,42.805,6.029,13.3006,4.59985,2469.26,2019-5-18T03:05:48Z
2019-05-18T01:08:37Z,42.805,6.029,13.3043,4.59999,2469.307,2019-5-18T03:08:51Z
2019-05-18T01:11:40Z,42.805,6.029,13.3018,4.60001,2469.307,2019-5-18T03:11:54Z
2019-05-18T01:14:43Z,42.805,6.029,13.3023,4.59992,2469.27,2019-5-18T03:14:57Z
2019-05-18T01:17:46Z,42.805,6.029,13.3006,4.59999,2469.284,2019-5-18T03:18:00Z
2019-05-18T01:20:49Z,42.805,6.029,13.3019,4.60011,2469.284,2019-5-18T03:21:03Z
2019-05-18T01:23:52Z,42.805,6.029,13.3019,4.59993,2469.26,2019-5-18T03:24:06Z
2019-05-18T01:26:55Z,42.805,6.029,13.2971,4.59994,2469.26,2019-5-18T03:27:09Z
2019-05-18T01:29:58Z,42.805,6.029,13.3005,4.59991,2469.26,2019-5-18T03:30:12Z
2019-05-18T01:33:01Z,42.805,6.029,13.2996,4.59983,2469.307,2019-5-18T03:33:15Z
2019-05-18T01:36:04Z,42.805,6.029,13.2987,4.59985,2469.307,2019-5-18T03:36:18Z
2019-05-18T01:39:07Z,42.805,6.029,13.3012,4.59981,2469.284,2019-5-18T03:39:21Z
2019-05-18T01:42:10Z,42.805,6.029,13.2990,4.59987,2469.307,2019-5-18T03:42:24Z
2019-05-18T01:45:13Z,42.805,6.029,13.3000,4.59994,2469.27,2019-5-18T03:45:27Z
2019-05-18T01:48:16Z,42.805,6.029,13.2991,4.59981,2469.307,2019-5-18T03:48:30Z
2019-05-18T01:51:18Z,42.805,6.029,13.3014,4.59984,2469.307,2019-5-18T03:51:32Z
2019-05-18T01:54:21Z,42.805,6.029,13.2986,4.59986,2469.284,2019-5-18T03:54:35Z
2019-05-18T01:57:24Z,42.805,6.029,13.2992,4.59990,2469.26,2019-5-18T03:57:38Z
2019-05-18T02:00:27Z,42.805,6.029,13.3001,4.59991,2469.307,2019-5-18T04:00:41Z
2019-05-18T02:03:30Z,42.805,6.029,13.3009,4.59995,2469.307,2019-5-18T04:03:44Z
2019-05-18T02:06:33Z,42.805,6.029,13.3014,4.59992,2469.27,2019-5-18T04:06:47Z
2019-05-18T02:09:36Z,42.805,6.029,13.3004,4.59999,2469.27,2019-5-18T04:09:50Z
2019-05-18T02:12:39Z,42.805,6.029,13.2996,4.59991,2469.307,2019-5-18T04:12:53Z
2019-05-18T02:15:42Z,42.805,6.029,13.2982,4.59984,2469.321,2019-5-18T04:15:56Z
2019-05-18T02:18:45Z,42.805,6.029,13.2990,4.59994,2469.307,2019-5-18T04:18:59Z
2019-05-18T02:21:48Z,42.805,6.029,13.2997,4.59990,2469.307,2019-5-18T04:22:02Z
2019-05-18T02:24:51Z,42.805,6.029,13.2968,4.60024,2469.307,2019-5-18T04:25:05Z
2019-05-18T02:27:54Z,42.805,6.029,13.2983,4.59991,2469.307,2019-5-18T04:28:08Z
2019-05-18T02:30:57Z,42.805,6.029,13.2991,4.59985,2469.316,2019-5-18T04:31:11Z
2019-05-18T02:34:00Z,42.805,6.029,13.3013,4.59988,2469.33,2019-5-18T04:34:14Z
2019-05-18T02:37:03Z,42.805,6.029,13.3014,4.59988,2469.307,2019-5-18T04:37:17Z
2019-05-18T02:40:06Z,42.805,6.029,13.2981,4.60007,2469.284,2019-5-18T04:40:20Z
2019-05-18T02:43:09Z,42.805,6.029,13.2993,4.59988,2469.27,2019-5-18T04:43:23Z
2019-05-18T02:46:11Z,42.805,6.029,13.3002,4.59988,2469.316,2019-5-18T04:46:25Z
2019-05-18T02:49:14Z,42.805,6.029,13.2996,4.59992,2469.293,2019-5-18T04:49:28Z
2019-05-18T02:52:17Z,42.805,6.029,13.2990,4.59990,2469.344,2019-5-18T04:52:31Z
2019-05-18T02:55:20Z,42.805,6.029,13.3000,4.59996,2469.33,2019-5-18T04:55:34Z
2019-05-18T02:58:23Z,42.805,6.029,13.3000,4.59993,2469.307,2019-5-18T04:58:37Z
2019-05-18T03:01:26Z,42.805,6.029,13.2984,4.59986,2469.33,2019-5-18T05:01:40Z
2019-05-18T03:04:29Z,42.805,6.029,13.2986,4.59990,2469.377,2019-5-18T05:04:43Z
2019-05-18T03:07:32Z,42.805,6.029,13.2989,4.59984,2469.34,2019-5-18T05:07:46Z
2019-05-18T03:10:35Z,42.805,6.029,13.2987,4.59984,2469.33,2019-5-18T05:10:49Z
2019-05-18T03:13:38Z,42.805,6.029,13.2986,4.59987,2469.316,2019-5-18T05:13:52Z
2019-05-18T03:16:41Z,42.805,6.029,13.2983,4.59988,2469.377,2019-5-18T05:16:55Z
2019-05-18T03:19:44Z,42.805,6.029,13.2986,4.59978,2469.377,2019-5-18T05:19:58Z
2019-05-18T03:22:47Z,42.805,6.029,13.2986,4.59986,2469.34,2019-5-18T05:23:01Z
2019-05-18T03:25:50Z,42.805,6.029,13.2993,4.59984,2469.377,2019-5-18T05:26:04Z
2019-05-18T03:28:53Z,42.805,6.029,13.2987,4.59986,2469.316,2019-5-18T05:29:07Z
2019-05-18T03:31:56Z,42.805,6.029,13.2983,4.59981,2469.34,2019-5-18T05:32:10Z
2019-05-18T03:34:59Z,42.805,6.029,13.2993,4.60002,2469.354,2019-5-18T05:35:13Z
2019-05-18T03:38:02Z,42.805,6.029,13.2996,4.59978,2469.377,2019-5-18T05:38:16Z
2019-05-18T03:41:05Z,42.805,6.029,13.2980,4.59988,2469.354,2019-5-18T05:41:19Z
2019-05-18T03:44:08Z,42.805,6.029,13.2983,4.59981,2469.377,2019-5-18T05:44:22Z
2019-05-18T03:47:10Z,42.805,6.029,13.2982,4.59985,2469.4,2019-5-18T05:47:25Z
2019-05-18T03:50:13Z,42.805,6.029,13.2987,4.59980,2469.4,2019-5-18T05:50:27Z
2019-05-18T03:53:16Z,42.805,6.029,13.2984,4.59988,2469.354,2019-5-18T05:53:30Z
2019-05-18T03:56:19Z,42.805,6.029,13.2993,4.59985,2469.363,2019-5-18T05:56:33Z
2019-05-18T03:59:22Z,42.805,6.029,13.2980,4.59983,2469.363,2019-5-18T05:59:36Z
2019-05-18T04:02:25Z,42.805,6.029,13.2982,4.59983,2469.4,2019-5-18T06:02:39Z
2019-05-18T04:05:28Z,42.805,6.029,13.2993,4.59988,2469.4,2019-5-18T06:05:42Z
2019-05-18T04:08:31Z,42.805,6.029,13.2983,4.59981,2469.424,2019-5-18T06:08:45Z
2019-05-18T04:11:34Z,42.805,6.029,13.2984,4.59986,2469.4,2019-5-18T06:11:48Z
2019-05-18T04:14:37Z,42.805,6.029,13.2990,4.59987,2469.386,2019-5-18T06:14:51Z
2019-05-18T04:17:40Z,42.805,6.029,13.2990,4.59987,2469.41,2019-5-18T06:17:54Z
2019-05-18T04:20:43Z,42.805,6.029,13.2977,4.59988,2469.424,2019-5-18T06:20:57Z
2019-05-18T04:23:46Z,42.805,6.029,13.2987,4.59983,2469.447,2019-5-18T06:24:00Z
2019-05-18T04:26:49Z,42.805,6.029,13.2990,4.59986,2469.447,2019-5-18T06:27:03Z
2019-05-18T04:29:52Z,42.805,6.029,13.2998,4.59986,2469.41,2019-5-18T06:30:06Z
2019-05-18T04:32:55Z,42.805,6.029,13.2984,4.59983,2469.447,2019-5-18T06:33:09Z
2019-05-18T04:35:58Z,42.805,6.029,13.2982,4.59991,2469.4,2019-5-18T06:36:12Z
2019-05-18T04:39:01Z,42.805,6.029,13.2990,4.59986,2469.424,2019-5-18T06:39:15Z
2019-05-18T04:42:04Z,42.805,6.029,13.3000,4.59989,2469.424,2019-5-18T06:42:18Z
2019-05-18T04:45:06Z,42.805,6.029,13.2983,4.59986,2469.47,2019-5-18T06:45:20Z
2019-05-18T04:48:09Z,42.805,6.029,13.2984,4.59993,2469.433,2019-5-18T06:48:23Z
2019-05-18T04:51:12Z,42.805,6.029,13.2997,4.59990,2469.447,2019-5-18T06:51:26Z
2019-05-18T04:54:15Z,42.805,6.029,13.2985,4.59991,2469.494,2019-5-18T06:54:29Z
2019-05-18T04:57:18Z,42.805,6.029,13.2989,4.59999,2469.424,2019-5-18T06:57:32Z
2019-05-18T05:00:21Z,42.805,6.029,13.2995,4.59997,2469.433,2019-5-18T07:00:35Z
2019-05-18T05:03:24Z,42.805,6.029,13.2996,4.59984,2469.47,2019-5-18T07:03:38Z
2019-05-18T05:06:27Z,42.805,6.029,13.2991,4.59992,2469.433,2019-5-18T07:06:41Z
2019-05-18T05:09:30Z,42.805,6.029,13.2992,4.59982,2469.47,2019-5-18T07:09:44Z
2019-05-18T05:12:33Z,42.805,6.029,13.2987,4.59978,2469.456,2019-5-18T07:12:47Z
2019-05-18T05:15:36Z,42.805,6.029,13.2993,4.59991,2469.47,2019-5-18T07:15:50Z
2019-05-18T05:18:39Z,42.805,6.029,13.2986,4.59993,2469.494,2019-5-18T07:18:53Z
2019-05-18T05:21:42Z,42.805,6.029,13.3012,4.59993,2469.47,2019-5-18T07:21:56Z
2019-05-18T05:24:45Z,42.805,6.029,13.3031,4.59996,2469.456,2019-5-18T07:24:59Z
2019-05-18T05:27:48Z,42.805,6.029,13.3008,4.59989,2469.47,2019-5-18T07:28:02Z
2019-05-18T05:30:51Z,42.805,6.029,13.2992,4.59988,2469.494,2019-5-18T07:31:05Z
2019-05-18T05:33:54Z,42.805,6.029,13.2990,4.59993,2469.47,2019-5-18T07:34:08Z
2019-05-18T05:36:57Z,42.805,6.029,13.2987,4.59988,2469.494,2019-5-18T07:37:11Z
2019-05-18T05:40:00Z,42.805,6.029,13.3005,4.59987,2469.494,2019-5-18T07:40:14Z
2019-05-18T05:43:03Z,42.805,6.029,13.3006,4.59991,2469.48,2019-5-18T07:43:17Z
2019-05-18T05:46:05Z,42.805,6.029,13.2995,4.59989,2469.494,2019-5-18T07:46:19Z
2019-05-18T05:49:08Z,42.805,6.029,13.2997,4.59988,2469.47,2019-5-18T07:49:22Z
2019-05-18T05:52:11Z,42.805,6.029,13.3014,4.59982,2469.494,2019-5-18T07:52:25Z
2019-05-18T05:55:14Z,42.805,6.029,13.2987,4.59989,2469.517,2019-5-18T07:55:28Z
2019-05-18T05:58:17Z,42.805,6.029,13.3009,4.59980,2469.47,2019-5-18T07:58:31Z
2019-05-18T06:01:20Z,42.805,6.029,13.2984,4.59988,2469.48,2019-5-18T08:01:34Z
2019-05-18T06:04:23Z,42.805,6.029,13.2986,4.59985,2469.494,2019-5-18T08:04:37Z
2019-05-18T06:07:26Z,42.805,6.029,13.2988,4.59986,2469.456,2019-5-18T08:07:40Z
2019-05-18T06:10:29Z,42.805,6.029,13.2997,4.59996,2469.494,2019-5-18T08:10:43Z
2019-05-18T06:13:32Z,42.805,6.029,13.2996,4.59989,2469.517,2019-5-18T08:13:46Z
2019-05-18T06:16:35Z,42.805,6.029,13.3017,4.59994,2469.48,2019-5-18T08:16:49Z
2019-05-18T06:19:38Z,42.805,6.029,13.2991,4.59991,2469.47,2019-5-18T08:19:52Z
2019-05-18T06:22:41Z,42.805,6.029,13.3020,4.59991,2469.517,2019-5-18T08:22:55Z
2019-05-18T06:25:44Z,42.805,6.029,13.3006,4.59993,2469.48,2019-5-18T08:25:58Z
2019-05-18T06:28:47Z,42.805,6.029,13.3012,4.59987,2469.507,2019-5-18T08:29:01Z
2019-05-18T06:31:50Z,42.805,6.029,13.3005,4.59981,2469.48,2019-5-18T08:32:04Z
2019-05-18T06:34:53Z,42.805,6.029,13.3005,4.59975,2469.48,2019-5-18T08:35:07Z
2019-05-18T06:37:56Z,42.805,6.029,13.2982,4.59991,2469.517,2019-5-18T08:38:10Z
2019-05-18T06:40:59Z,42.805,6.029,13.3019,4.59994,2469.48,2019-5-18T08:41:13Z
2019-05-18T06:44:01Z,42.805,6.029,13.3005,4.59984,2469.48,2019-5-18T08:44:16Z
2019-05-18T06:47:04Z,42.805,6.029,13.2998,4.59980,2469.494,2019-5-18T08:47:18Z
2019-05-18T06:50:07Z,42.805,6.029,13.2989,4.59984,2469.494,2019-5-18T08:50:21Z
2019-05-18T06:53:10Z,42.805,6.029,13.2993,4.59978,2469.47,2019-5-18T08:53:24Z
2019-05-18T06:56:13Z,42.805,6.029,13.3006,4.59991,2469.503,2019-5-18T08:56:27Z
2019-05-18T06:59:16Z,42.805,6.029,13.3015,4.59996,2469.494,2019-5-18T08:59:30Z
2019-05-18T07:02:19Z,42.805,6.029,13.3011,4.59992,2469.456,2019-5-18T09:02:33Z
2019-05-18T07:05:22Z,42.805,6.029,13.3018,4.59994,2469.517,2019-5-18T09:05:36Z
2019-05-18T07:08:25Z,42.805,6.029,13.3017,4.59988,2469.494,2019-5-18T09:08:39Z
2019-05-18T07:11:28Z,42.805,6.029,13.3005,4.59983,2469.47,2019-5-18T09:11:42Z
2019-05-18T07:14:31Z,42.805,6.029,13.3022,4.60000,2469.456,2019-5-18T09:14:45Z
2019-05-18T07:17:34Z,42.805,6.029,13.3000,4.59994,2469.47,2019-5-18T09:17:48Z
2019-05-18T07:20:37Z,42.805,6.029,13.2997,4.59989,2469.47,2019-5-18T09:20:51Z
2019-05-18T07:23:40Z,42.805,6.029,13.3023,4.60000,2469.503,2019-5-18T09:23:54Z
2019-05-18T07:26:43Z,42.805,6.029,13.2986,4.59988,2469.47,2019-5-18T09:26:57Z
2019-05-18T07:29:46Z,42.805,6.029,13.2988,4.60001,2469.517,2019-5-18T09:30:00Z
2019-05-18T07:32:49Z,42.805,6.029,13.3002,4.59994,2469.503,2019-5-18T09:33:03Z
2019-05-18T07:35:52Z,42.805,6.029,13.2994,4.59997,2469.48,2019-5-18T09:36:06Z
2019-05-18T07:38:55Z,42.805,6.029,13.3000,4.59995,2469.456,2019-5-18T09:39:09Z
2019-05-18T07:41:58Z,42.805,6.029,13.3010,4.59983,2469.48,2019-5-18T09:42:12Z
2019-05-18T07:45:00Z,42.805,6.029,13.2988,4.59984,2469.47,2019-5-18T09:45:14Z
2019-05-18T07:48:03Z,42.805,6.029,13.2984,4.59985,2469.48,2019-5-18T09:48:17Z
2019-05-18T07:51:06Z,42.805,6.029,13.3013,4.60005,2469.48,2019-5-18T09:51:20Z
2019-05-18T07:54:09Z,42.805,6.029,13.3013,4.59994,2469.447,2019-5-18T09:54:23Z
2019-05-18T07:57:12Z,42.805,6.029,13.2990,4.59991,2469.494,2019-5-18T09:57:26Z
2019-05-18T08:00:15Z,42.805,6.029,13.2988,4.59998,2469.494,2019-5-18T10:00:29Z
2019-05-18T08:03:18Z,42.805,6.029,13.3001,4.60000,2469.456,2019-5-18T10:03:32Z
2019-05-18T08:06:21Z,42.805,6.029,13.3004,4.59991,2469.48,2019-5-18T10:06:35Z
2019-05-18T08:09:24Z,42.805,6.029,13.2991,4.59996,2469.517,2019-5-18T10:09:38Z
2019-05-18T08:12:27Z,42.805,6.029,13.3009,4.59987,2469.433,2019-5-18T10:12:41Z
2019-05-18T08:15:30Z,42.805,6.029,13.2991,4.59983,2469.47,2019-5-18T10:15:44Z
2019-05-18T08:18:33Z,42.805,6.029,13.3016,4.59986,2469.456,2019-5-18T10:18:47Z
2019-05-18T08:21:36Z,42.805,6.029,13.2985,4.59986,2469.456,2019-5-18T10:21:50Z
2019-05-18T08:24:39Z,42.805,6.029,13.2985,4.59982,2469.47,2019-5-18T10:24:53Z
2019-05-18T08:27:42Z,42.805,6.029,13.2990,4.59987,2469.433,2019-5-18T10:27:56Z
2019-05-18T08:30:45Z,42.805,6.029,13.3000,4.59996,2469.47,2019-5-18T10:30:59Z
2019-05-18T08:33:48Z,42.805,6.029,13.2992,4.59994,2469.433,2019-5-18T10:34:02Z
2019-05-18T08:36:51Z,42.805,6.029,13.3000,4.59978,2469.447,2019-5-18T10:37:05Z
2019-05-18T08:39:54Z,42.805,6.029,13.3000,4.59994,2469.47,2019-5-18T10:40:08Z
2019-05-18T08:42:57Z,42.805,6.029,13.3016,4.59986,2469.47,2019-5-18T10:43:11Z
2019-05-18T08:46:00Z,42.805,6.029,13.3024,4.59991,2469.456,2019-5-18T10:46:14Z
2019-05-18T08:49:02Z,42.805,6.029,13.3009,4.59991,2469.47,2019-5-18T10:49:16Z
2019-05-18T08:52:05Z,42.805,6.029,13.2995,4.59990,2469.447,2019-5-18T10:52:19Z
2019-05-18T08:55:08Z,42.805,6.029,13.3019,4.59991,2469.447,2019-5-18T10:55:22Z
2019-05-18T08:58:11Z,42.805,6.029,13.3000,4.59992,2469.47,2019-5-18T10:58:25Z
2019-05-18T09:01:14Z,42.805,6.029,13.3004,4.60007,2469.447,2019-5-18T11:01:28Z
2019-05-18T09:04:17Z,42.805,6.029,13.2985,4.60009,2469.447,2019-5-18T11:04:31Z
2019-05-18T09:07:20Z,42.805,6.029,13.3011,4.60015,2469.47,2019-5-18T11:07:34Z
2019-05-18T09:10:23Z,42.805,6.029,13.3011,4.59998,2469.433,2019-5-18T11:10:37Z
2019-05-18T09:13:26Z,42.805,6.029,13.3001,4.59983,2469.4,2019-5-18T11:13:40Z
2019-05-18T09:16:29Z,42.805,6.029,13.3000,4.60001,2469.424,2019-5-18T11:16:43Z
2019-05-18T09:19:32Z,42.805,6.029,13.2996,4.59986,2469.447,2019-5-18T11:19:46Z
2019-05-18T09:22:35Z,42.805,6.029,13.3001,4.59991,2469.41,2019-5-18T11:22:49Z
2019-05-18T09:25:38Z,42.805,6.029,13.3003,4.59976,2469.4,2019-5-18T11:25:52Z
2019-05-18T09:28:41Z,42.805,6.029,13.3004,4.59994,2469.447,2019-5-18T11:28:55Z
2019-05-18T09:31:44Z,42.805,6.029,13.3009,4.59994,2469.447,2019-5-18T11:31:58Z
2019-05-18T09:34:47Z,42.805,6.029,13.2999,4.59999,2469.4,2019-5-18T11:35:01Z
2019-05-18T09:37:50Z,42.805,6.029,13.3007,4.59993,2469.424,2019-5-18T11:38:04Z
2019-05-18T09:40:53Z,42.805,6.029,13.3001,4.59999,2469.4,2019-5-18T11:41:07Z
2019-05-18T09:43:56Z,42.805,6.029,13.2998,4.60004,2469.4,2019-5-18T11:44:10Z
2019-05-18T09:46:59Z,42.805,6.029,13.3010,4.59986,2469.424,2019-5-18T11:47:13Z
2019-05-18T09:50:02Z,42.805,6.029,13.3010,4.59989,2469.386,2019-5-18T11:50:16Z
2019-05-18T09:53:05Z,42.805,6.029,13.2979,4.60001,2469.424,2019-5-18T11:53:19Z
2019-05-18T09:56:07Z,42.805,6.029,13.2995,4.59999,2469.4,2019-5-18T11:56:22Z
2019-05-18T09:59:10Z,42.805,6.029,13.3001,4.59991,2469.363,2019-5-18T11:59:24Z
2019-05-18T10:02:13Z,42.805,6.029,13.2995,4.59993,2469.4,2019-5-18T12:02:27Z
2019-05-18T10:05:16Z,42.805,6.029,13.2979,4.59972,2469.41,2019-5-18T12:05:30Z
2019-05-18T10:08:19Z,42.805,6.029,13.3011,4.59986,2469.377,2019-5-18T12:08:33Z
2019-05-18T10:11:22Z,42.805,6.029,13.2989,4.59989,2469.4,2019-5-18T12:11:36Z
2019-05-18T10:14:25Z,42.805,6.029,13.2986,4.59987,2469.386,2019-5-18T12:14:39Z
2019-05-18T10:17:28Z,42.805,6.029,13.2996,4.60002,2469.386,2019-5-18T12:17:42Z
2019-05-18T10:20:31Z,42.805,6.029,13.2976,4.59986,2469.363,2019-5-18T12:20:45Z
2019-05-18T10:23:34Z,42.805,6.029,13.2987,4.59984,2469.386,2019-5-18T12:23:48Z
2019-05-18T10:26:37Z,42.805,6.029,13.3002,4.60006,2469.377,2019-5-18T12:26:51Z
2019-05-18T10:29:40Z,42.805,6.029,13.2995,4.59987,2469.377,2019-5-18T12:29:54Z
2019-05-18T10:32:43Z,42.805,6.029,13.3007,4.59993,2469.4,2019-5-18T12:32:57Z
2019-05-18T10:35:46Z,42.805,6.029,13.2998,4.59988,2469.4,2019-5-18T12:36:00Z
2019-05-18T10:38:49Z,42.805,6.029,13.3005,4.59994,2469.377,2019-5-18T12:39:03Z
2019-05-18T10:41:52Z,42.805,6.029,13.2991,4.59981,2469.377,2019-5-18T12:42:06Z
2019-05-18T10:44:55Z,42.805,6.029,13.2986,4.59993,2469.354,2019-5-18T12:45:09Z
2019-05-18T10:47:58Z,42.805,6.029,13.2996,4.59983,2469.354,2019-5-18T12:48:12Z
2019-05-18T10:51:01Z,42.805,6.029,13.2996,4.59991,2469.34,2019-5-18T12:51:15Z
2019-05-18T10:54:04Z,42.805,6.029,13.3010,4.59983,2469.34,2019-5-18T12:54:18Z
2019-05-18T10:57:07Z,42.805,6.029,13.3006,4.59987,2469.377,2019-5-18T12:57:21Z
2019-05-18T11:00:10Z,42.805,6.029,13.2990,4.59986,2469.354,2019-5-18T13:00:24Z
2019-05-18T11:03:12Z,42.805,6.029,13.3015,4.59985,2469.4,2019-5-18T13:03:26Z
2019-05-18T11:06:15Z,42.805,6.029,13.2992,4.59998,2469.354,2019-5-18T13:06:29Z
2019-05-18T11:09:18Z,42.805,6.029,13.2980,4.59995,2469.354,2019-5-18T13:09:32Z
2019-05-18T11:12:21Z,42.805,6.029,13.3014,4.60008,2469.354,2019-5-18T13:12:35Z
2019-05-18T11:15:24Z,42.805,6.029,13.3004,4.59991,2469.354,2019-5-18T13:15:38Z
2019-05-18T11:18:27Z,42.805,6.029,13.3001,4.59987,2469.363,2019-5-18T13:18:41Z
2019-05-18T11:21:30Z,42.805,6.029,13.2991,4.59989,2469.33,2019-5-18T13:21:44Z
2019-05-18T11:24:33Z,42.805,6.029,13.3002,4.59996,2469.316,2019-5-18T13:24:47Z
2019-05-18T11:27:36Z,42.805,6.029,13.2990,4.59985,2469.33,2019-5-18T13:27:50Z
2019-05-18T11:30:39Z,42.805,6.029,13.2982,4.59971,2469.354,2019-5-18T13:30:53Z
2019-05-18T11:33:42Z,42.805,6.029,13.2993,4.59985,2469.34,2019-5-18T13:33:56Z
2019-05-18T11:36:45Z,42.805,6.029,13.2990,4.59996,2469.377,2019-5-18T13:36:59Z
2019-05-18T11:39:48Z,42.805,6.029,13.2992,4.59988,2469.316,2019-5-18T13:40:02Z
2019-05-18T11:42:51Z,42.805,6.029,13.3015,4.59990,2469.354,2019-5-18T13:43:05Z
2019-05-18T11:45:54Z,42.805,6.029,13.2996,4.59994,2469.354,2019-5-18T13:46:08Z
2019-05-18T11:48:57Z,42.805,6.029,13.3000,4.59989,2469.33,2019-5-18T13:49:11Z
2019-05-18T11:52:00Z,42.805,6.029,13.2995,4.59992,2469.316,2019-5-18T13:52:14Z
2019-05-18T11:55:03Z,42.805,6.029,13.2996,4.59991,2469.33,2019-5-18T13:55:17Z
2019-05-18T11:58:06Z,42.805,6.029,13.2993,4.59990,2469.307,2019-5-18T13:58:20Z
2019-05-18T12:01:09Z,42.805,6.029,13.2985,4.59991,2469.34,2019-5-18T14:01:23Z
2019-05-18T12:04:12Z,42.805,6.029,13.2987,4.59991,2469.316,2019-5-18T14:04:26Z
2019-05-18T12:07:14Z,42.805,6.029,13.2983,4.59994,2469.293,2019-5-18T14:07:28Z
2019-05-18T12:10:17Z,42.805,6.029,13.2973,4.59976,2469.307,2019-5-18T14:10:31Z
2019-05-18T12:13:20Z,42.805,6.029,13.2983,4.59976,2469.33,2019-5-18T14:13:34Z
2019-05-18T12:16:23Z,42.805,6.029,13.2989,4.59987,2469.33,2019-5-18T14:16:37Z
2019-05-18T12:19:26Z,42.805,6.029,13.3011,4.59991,2469.354,2019-5-18T14:19:40Z
2019-05-18T12:22:29Z,42.805,6.029,13.2994,4.59991,2469.33,2019-5-18T14:22:43Z
2019-05-18T12:25:32Z,42.805,6.029,13.2991,4.59998,2469.307,2019-5-18T14:25:46Z
2019-05-18T12:28:35Z,42.805,6.029,13.2991,4.59997,2469.293,2019-5-18T14:28:49Z
2019-05-18T12:31:38Z,42.805,6.029,13.3006,4.59986,2469.33,2019-5-18T14:31:52Z
2019-05-18T12:34:41Z,42.805,6.029,13.2986,4.59983,2469.33,2019-5-18T14:34:55Z
2019-05-18T12:37:44Z,42.805,6.029,13.2997,4.59974,2469.284,2019-5-18T14:37:58Z
2019-05-18T12:40:47Z,42.805,6.029,13.3000,4.59988,2469.307,2019-5-18T14:41:01Z
2019-05-18T12:43:50Z,42.805,6.029,13.2984,4.59981,2469.33,2019-5-18T14:44:04Z
2019-05-18T12:46:53Z,42.805,6.029,13.2991,4.59996,2469.307,2019-5-18T14:47:07Z
2019-05-18T12:49:56Z,42.805,6.029,13.2981,4.59973,2469.307,2019-5-18T14:50:10Z
2019-05-18T12:52:59Z,42.805,6.029,13.2976,4.59989,2469.307,2019-5-18T14:53:13Z
2019-05-18T12:56:02Z,42.805,6.029,13.3004,4.59995,2469.307,2019-5-18T14:56:16Z
2019-05-18T12:59:05Z,42.805,6.029,13.2977,4.59982,2469.293,2019-5-18T14:59:19Z
2019-05-18T13:02:08Z,42.805,6.029,13.2980,4.60009,2469.33,2019-5-18T15:02:22Z
2019-05-18T13:05:11Z,42.805,6.029,13.2997,4.59988,2469.307,2019-5-18T15:05:25Z
2019-05-18T13:08:14Z,42.805,6.029,13.2976,4.59985,2469.354,2019-5-18T15:08:28Z
2019-05-18T13:11:16Z,42.805,6.029,13.2983,4.59985,2469.307,2019-5-18T15:11:31Z
2019-05-18T13:14:19Z,42.805,6.029,13.2976,4.59984,2469.293,2019-5-18T15:14:33Z
2019-05-18T13:17:22Z,42.805,6.029,13.2986,4.59973,2469.321,2019-5-18T15:17:36Z
2019-05-18T13:20:25Z,42.805,6.029,13.2986,4.59997,2469.284,2019-5-18T15:20:39Z
2019-05-18T13:23:28Z,42.805,6.029,13.3004,4.59976,2469.284,2019-5-18T15:23:42Z
2019-05-18T13:26:31Z,42.805,6.029,13.2980,4.59991,2469.27,2019-5-18T15:26:45Z
2019-05-18T13:29:34Z,42.805,6.029,13.2991,4.59994,2469.33,2019-5-18T15:29:48Z
2019-05-18T13:32:37Z,42.805,6.029,13.3000,4.59991,2469.316,2019-5-18T15:32:51Z
2019-05-18T13:35:40Z,42.805,6.029,13.3002,4.59988,2469.284,2019-5-18T15:35:54Z
2019-05-18T13:38:43Z,42.805,6.029,13.3014,4.60000,2469.307,2019-5-18T15:38:57Z
2019-05-18T13:41:46Z,42.805,6.029,13.3006,4.59999,2469.33,2019-5-18T15:42:00Z
2019-05-18T13:44:49Z,42.805,6.029,13.2993,4.59986,2469.307,2019-5-18T15:45:03Z
2019-05-18T13:47:52Z,42.805,6.029,13.2998,4.59992,2469.307,2019-5-18T15:48:06Z
2019-05-18T13:50:55Z,42.805,6.029,13.3005,4.59994,2469.293,2019-5-18T15:51:09Z
2019-05-18T13:53:58Z,42.805,6.029,13.2984,4.59984,2469.284,2019-5-18T15:54:12Z
2019-05-18T13:57:01Z,42.805,6.029,13.2993,4.59982,2469.33,2019-5-18T15:57:15Z
2019-05-18T14:00:04Z,42.805,6.029,13.2979,4.59987,2469.307,2019-5-18T16:00:18Z
2019-05-18T14:03:07Z,42.805,6.029,13.2996,4.59983,2469.307,2019-5-18T16:03:21Z
2019-05-18T14:06:10Z,42.805,6.029,13.2988,4.59985,2469.316,2019-5-18T16:06:24Z
2019-05-18T14:09:13Z,42.805,6.029,13.2989,4.59975,2469.293,2019-5-18T16:09:27Z
2019-05-18T14:12:16Z,42.805,6.029,13.2993,4.59988,2469.33,2019-5-18T16:12:30Z
2019-05-18T14:15:19Z,42.805,6.029,13.3002,4.59978,2469.307,2019-5-18T16:15:33Z
2019-05-18T14:18:21Z,42.805,6.029,13.2985,4.59986,2469.33,2019-5-18T16:18:35Z
2019-05-18T14:21:24Z,42.805,6.029,13.2994,4.59997,2469.33,2019-5-18T16:21:38Z
2019-05-18T14:24:27Z,42.805,6.029,13.3003,4.59985,2469.307,2019-5-18T16:24:41Z
2019-05-18T14:27:30Z,42.805,6.029,13.2992,4.59990,2469.33,2019-5-18T16:27:44Z
2019-05-18T14:30:33Z,42.805,6.029,13.3043,4.59988,2469.33,2019-5-18T16:30:47Z
2019-05-18T14:33:36Z,42.805,6.029,13.3004,4.59991,2469.307,2019-5-18T16:33:50Z
2019-05-18T14:36:39Z,42.805,6.029,13.2981,4.59988,2469.316,2019-5-18T16:36:53Z
2019-05-18T14:39:42Z,42.805,6.029,13.2991,4.59983,2469.316,2019-5-18T16:39:56Z
2019-05-18T14:42:45Z,42.805,6.029,13.2975,4.59991,2469.34,2019-5-18T16:42:59Z
2019-05-18T14:45:48Z,42.805,6.029,13.2984,4.59982,2469.33,2019-5-18T16:46:02Z
2019-05-18T14:48:51Z,42.805,6.029,13.3004,4.59988,2469.354,2019-5-18T16:49:05Z
2019-05-18T14:51:54Z,42.805,6.029,13.2980,4.59989,2469.33,2019-5-18T16:52:08Z
2019-05-18T14:54:57Z,42.805,6.029,13.2995,4.59989,2469.34,2019-5-18T16:55:11Z
2019-05-18T14:58:00Z,42.805,6.029,13.2990,4.59987,2469.33,2019-5-18T16:58:14Z
2019-05-18T15:01:03Z,42.805,6.029,13.3002,4.59991,2469.363,2019-5-18T17:01:17Z
2019-05-18T15:04:06Z,42.805,6.029,13.2987,4.59996,2469.33,2019-5-18T17:04:20Z
2019-05-18T15:07:09Z,42.805,6.029,13.3014,4.59981,2469.354,2019-5-18T17:07:23Z
2019-05-18T15:10:12Z,42.805,6.029,13.2995,4.59982,2469.33,2019-5-18T17:10:26Z
2019-05-18T15:13:15Z,42.805,6.029,13.3000,4.59986,2469.34,2019-5-18T17:13:29Z